Big Rapids, MI

4:43 AM EDT on October 17, 2019 (GMT -0400)
Roben-Hood

Weather History for KRQB - August, 2019

Change the Weather History Date:

Saturday, August 17, 2019

  Actual Average Record
Temperature  
Mean Temperature 68 °F -  
Max Temperature 80 °F 80 °F 101 °F (1988)
Min Temperature 57 °F 55 °F 39 °F (1992)
Cooling Degree Days 4    
Growing Degree Days 18 (Base 50)    
Moisture  
Dew Point 63 °F    
Average Humidity 80    
Maximum Humidity 99    
Minimum Humidity 49    
Precipitation  
Precipitation 0.00 in - - ()
Sea Level Pressure  
Sea Level Pressure 29.89 in    
Wind  
Wind Speed 4 mph (West)    
Max Wind Speed 13 mph    
Max Gust Speed 18 mph    
Visibility 9 miles    
Events Fog , Rain    
Averages and records for this station are not official NWS values.
T = Trace of Precipitation, MM = Missing Value Source: NWS Daily Summary

Daily Weather History Graph

Daily Weather History Graph

Search for Another Location

Airport or City:

Astronomy

Aug. 17, 2019 Rise Set
Actual Time 6:48 AM EDT 8:42 PM EDT
Civil Twilight 6:17 AM EDT 9:13 PM EDT
Nautical Twilight 5:39 AM EDT 9:51 PM EDT
Astronomical Twilight 4:58 AM EDT 10:32 PM EDT
Moon 10:07 PM EDT 8:38 AM EDT
Length of Visible Light 14h 56m
Length of Day
13h 54m
Waning Gibbous, 96% of the Moon is Illuminated
Aug 17
Waning Gibbous
Aug 23
Last Quarter
Aug 30
New
Sep 5
First Quarter
Sep 14
Full

Hourly Weather History & Observations

Time (EDT) Temp. Heat Index Dew Point Humidity Pressure Visibility Wind Dir Wind Speed Gust Speed Precip Events Conditions
12:18 AM 66.9 °F - 63.3 °F 88% 29.86 in 7.0 mi NW 10.4 mph 18.4 mph N/A Rain Heavy Rain
12:35 AM 65.3 °F - 63.0 °F 92% 29.87 in 7.0 mi Calm Calm - N/A Rain Light Rain
12:36 AM 65.3 °F - 63.0 °F 92% 29.87 in 10.0 mi SE 4.6 mph - N/A Rain Light Rain
12:55 AM 64.9 °F - 63.0 °F 93% 29.87 in 10.0 mi South 6.9 mph - N/A Rain Heavy Rain
1:15 AM 64.4 °F - 62.8 °F 94% 29.87 in 10.0 mi SE 3.5 mph - N/A   Mostly Cloudy
1:19 AM 64.4 °F - 62.6 °F 94% 29.87 in 10.0 mi SSE 3.5 mph - N/A   Mostly Cloudy
1:38 AM 63.0 °F - 61.7 °F 96% 29.87 in 10.0 mi Calm Calm - N/A   Clear
1:56 AM 63.1 °F - 61.9 °F 96% 29.86 in 10.0 mi Calm Calm - N/A   Clear
2:15 AM 62.8 °F - 61.7 °F 96% 29.86 in 10.0 mi Calm Calm - N/A   Clear
2:35 AM 62.1 °F - 61.2 °F 97% 29.86 in 10.0 mi Calm Calm - N/A   Clear
2:36 AM 62.1 °F - 61.2 °F 97% 29.86 in 10.0 mi Calm Calm - N/A   Clear
2:58 AM 60.8 °F - 59.9 °F 97% 29.87 in 1.5 mi Calm Calm - N/A   Mist
3:15 AM 61.7 °F - 61.0 °F 97% 29.87 in 10.0 mi Calm Calm - N/A   Clear
3:35 AM 63.3 °F - 62.6 °F 97% 29.86 in 10.0 mi West 3.5 mph - N/A   Clear
3:36 AM 63.3 °F - 62.6 °F 97% 29.86 in 10.0 mi West 3.5 mph - N/A   Clear
3:56 AM 63.5 °F - 62.6 °F 97% 29.86 in 10.0 mi West 3.5 mph - N/A   Clear
4:19 AM 62.8 °F - 61.9 °F 97% 29.86 in 10.0 mi Calm Calm - N/A   Clear
4:37 AM 62.8 °F - 61.9 °F 97% 29.85 in 10.0 mi NW 3.5 mph - N/A   Clear
4:55 AM 60.1 °F - 59.2 °F 97% 29.86 in 1.0 mi Calm Calm - N/A   Mostly Cloudy
5:15 AM 59.9 °F - 59.0 °F 97% 29.86 in 0.5 mi Calm Calm - N/A Fog Fog
5:16 AM 59.9 °F - 59.0 °F 97% 29.86 in 0.5 mi Calm Calm - N/A Fog Fog
5:35 AM 59.5 °F - 59.0 °F 98% 29.87 in 0.5 mi Calm Calm - N/A Fog Fog
5:58 AM 59.5 °F - 59.0 °F 98% 29.86 in 0.2 mi Calm Calm - N/A Fog Fog
6:16 AM 59.2 °F - 58.5 °F 97% 29.85 in 0.2 mi SE 3.5 mph - N/A Fog Fog
6:35 AM 58.6 °F - 58.1 °F 98% 29.84 in 0.2 mi Calm Calm - N/A Fog Fog
6:36 AM 58.6 °F - 57.9 °F 97% 29.84 in 0.2 mi Calm Calm - N/A Fog Fog
6:55 AM 58.5 °F - 58.1 °F 99% 29.84 in 4.0 mi Calm Calm - N/A   Scattered Clouds
7:15 AM 57.4 °F - 56.8 °F 98% 29.86 in 1.5 mi Calm Calm - N/A   Scattered Clouds
7:37 AM 59.0 °F - 58.5 °F 98% 29.89 in 2.5 mi Calm Calm - N/A   Scattered Clouds
7:55 AM 63.5 °F - 62.8 °F 97% 29.92 in 10.0 mi WSW 9.2 mph - N/A   Clear
7:56 AM 63.5 °F - 63.0 °F 98% 29.92 in 10.0 mi WSW 10.4 mph - N/A   Clear
8:15 AM 64.6 °F - 63.9 °F 98% 29.92 in 10.0 mi West 10.4 mph - N/A   Clear
8:16 AM 64.6 °F - 63.9 °F 98% 29.92 in 10.0 mi West 10.4 mph - N/A   Clear
8:35 AM 65.8 °F - 64.9 °F 97% 29.91 in 10.0 mi West 5.8 mph - N/A   Clear
8:58 AM 67.5 °F - 66.2 °F 96% 29.92 in 10.0 mi West 6.9 mph - N/A   Clear
9:16 AM 68.5 °F - 66.9 °F 95% 29.92 in 10.0 mi West 6.9 mph - N/A   Clear
9:35 AM 69.1 °F - 66.9 °F 93% 29.92 in 10.0 mi West 9.2 mph - N/A   Clear
9:55 AM 69.8 °F - 66.9 °F 91% 29.91 in 10.0 mi WNW 10.4 mph - N/A   Clear
9:56 AM 69.8 °F - 66.9 °F 91% 29.91 in 10.0 mi WNW 9.2 mph - N/A   Clear
10:19 AM 72.0 °F - 65.8 °F 81% 29.91 in 10.0 mi West 8.1 mph - N/A   Clear
10:37 AM 73.2 °F - 64.9 °F 75% 29.91 in 10.0 mi West 9.2 mph 16.1 mph N/A   Clear
10:55 AM 74.5 °F - 64.4 °F 71% 29.92 in 10.0 mi WNW 9.2 mph - N/A   Clear
11:16 AM 75.2 °F - 63.7 °F 67% 29.93 in 10.0 mi WSW 10.4 mph - N/A   Scattered Clouds
11:35 AM 75.4 °F - 63.1 °F 66% 29.93 in 10.0 mi West 8.1 mph - N/A   Scattered Clouds
11:58 AM 75.9 °F - 63.1 °F 64% 29.94 in 10.0 mi West 8.1 mph - N/A   Mostly Cloudy
12:16 PM 76.6 °F - 63.0 °F 62% 29.94 in 10.0 mi West 9.2 mph - N/A   Scattered Clouds
12:35 PM 77.0 °F - 61.2 °F 58% 29.93 in 10.0 mi West 12.7 mph - N/A   Scattered Clouds
12:36 PM 77.0 °F - 61.3 °F 58% 29.93 in 10.0 mi West 11.5 mph - N/A   Scattered Clouds
12:55 PM 78.3 °F - 61.3 °F 56% 29.92 in 10.0 mi West 9.2 mph - N/A   Scattered Clouds
1:19 PM 77.9 °F - 61.7 °F 57% 29.91 in 10.0 mi NW 9.2 mph - N/A   Scattered Clouds
1:36 PM 77.5 °F - 61.0 °F 57% 29.92 in 10.0 mi NW 6.9 mph 17.3 mph N/A   Scattered Clouds
1:55 PM 79.3 °F - 61.0 °F 53% 29.92 in 10.0 mi WSW 4.6 mph 17.3 mph N/A   Scattered Clouds
1:56 PM 79.3 °F - 61.2 °F 54% 29.92 in 10.0 mi WSW 5.8 mph 17.3 mph N/A   Scattered Clouds
2:15 PM 80.1 °F 80.8 °F 59.5 °F 49% 29.93 in 10.0 mi WNW 6.9 mph - N/A   Scattered Clouds
2:35 PM 79.5 °F - 61.3 °F 54% 29.93 in 10.0 mi WNW 8.1 mph - N/A   Scattered Clouds
2:40 PM 79.0 °F - 61.0 °F 54% 29.93 in 10.0 mi WNW 6.9 mph - N/A   Mostly Cloudy
2:58 PM 78.6 °F - 61.7 °F 56% 29.92 in 10.0 mi West 8.1 mph - N/A   Mostly Cloudy
3:16 PM 79.9 °F - 61.9 °F 54% 29.92 in 10.0 mi WNW 10.4 mph - N/A   Overcast
3:35 PM 79.5 °F - 62.2 °F 55% 29.91 in 10.0 mi WSW 5.8 mph - N/A   Overcast
3:36 PM 79.5 °F - 62.2 °F 55% 29.91 in 10.0 mi WSW 4.6 mph - N/A   Overcast
3:55 PM 79.7 °F - 61.3 °F 53% 29.90 in 10.0 mi WSW 5.8 mph - N/A   Scattered Clouds
4:18 PM 80.6 °F 81.6 °F 61.3 °F 52% 29.90 in 10.0 mi West 6.9 mph - N/A   Scattered Clouds
4:36 PM 80.2 °F 81.2 °F 61.2 °F 52% 29.90 in 10.0 mi WSW 3.5 mph - N/A   Scattered Clouds
4:55 PM 79.2 °F - 61.3 °F 54% 29.89 in 10.0 mi NW 5.8 mph - N/A   Scattered Clouds
4:56 PM 79.2 °F - 61.2 °F 54% 29.89 in 10.0 mi WNW 3.5 mph - N/A   Scattered Clouds
5:15 PM 79.5 °F - 61.3 °F 54% 29.89 in 10.0 mi Calm Calm - N/A   Clear
5:39 PM 79.0 °F - 61.9 °F 56% 29.89 in 10.0 mi Calm Calm - N/A   Clear
5:56 PM 79.2 °F - 61.5 °F 55% 29.89 in 10.0 mi Calm Calm - N/A   Clear
6:15 PM 77.9 °F - 63.3 °F 61% 29.89 in 10.0 mi Calm Calm - N/A   Mostly Cloudy
6:16 PM 77.9 °F - 63.5 °F 61% 29.89 in 10.0 mi Calm Calm - N/A   Mostly Cloudy
6:39 PM 79.3 °F - 61.9 °F 55% 29.89 in 10.0 mi Calm Calm - N/A   Scattered Clouds
6:56 PM 77.5 °F - 63.7 °F 62% 29.89 in 10.0 mi Calm Calm - N/A   Clear
7:15 PM 77.2 °F - 63.5 °F 63% 29.89 in 10.0 mi Calm Calm - N/A   Clear
7:16 PM 77.2 °F - 63.3 °F 62% 29.89 in 10.0 mi Calm Calm - N/A   Clear
7:35 PM 75.2 °F - 65.8 °F 73% 29.89 in 10.0 mi Calm Calm - N/A   Mostly Cloudy
7:40 PM 75.4 °F - 65.5 °F 71% 29.89 in 10.0 mi Calm Calm - N/A   Mostly Cloudy
7:58 PM 73.6 °F - 68.0 °F 83% 29.89 in 10.0 mi Calm Calm - N/A   Overcast
8:15 PM 73.8 °F - 67.1 °F 80% 29.89 in 10.0 mi Calm Calm - N/A   Overcast
8:35 PM 72.7 °F - 67.6 °F 84% 29.89 in 10.0 mi Calm Calm - N/A   Overcast
8:55 PM 72.7 °F - 66.9 °F 82% 29.89 in 10.0 mi Calm Calm - N/A   Mostly Cloudy
8:56 PM 72.5 °F - 66.9 °F 83% 29.89 in 10.0 mi Calm Calm - N/A   Mostly Cloudy
9:19 PM 71.2 °F - 67.3 °F 87% 29.89 in 10.0 mi Calm Calm - N/A   Mostly Cloudy
9:37 PM 70.0 °F - 66.7 °F 89% 29.90 in 10.0 mi Calm Calm - N/A   Scattered Clouds
9:55 PM 69.1 °F - 66.4 °F 91% 29.90 in 10.0 mi Calm Calm - N/A   Clear
9:56 PM 69.1 °F - 66.4 °F 91% 29.90 in 10.0 mi West 3.5 mph - N/A   Clear
10:15 PM 68.9 °F - 66.2 °F 91% 29.91 in 10.0 mi West 11.5 mph - N/A   Clear
10:38 PM 67.1 °F - 64.6 °F 92% 29.90 in 10.0 mi Calm Calm - N/A   Clear
10:56 PM 67.1 °F - 65.1 °F 93% 29.90 in 10.0 mi West 8.1 mph - N/A   Clear
11:15 PM 66.6 °F - 64.6 °F 93% 29.90 in 10.0 mi West 4.6 mph - N/A   Scattered Clouds
11:16 PM 66.6 °F - 64.6 °F 93% 29.90 in 10.0 mi WNW 3.5 mph - N/A   Scattered Clouds
11:35 PM 67.1 °F - 65.1 °F 93% 29.90 in 10.0 mi Calm Calm - N/A   Scattered Clouds
11:55 PM 66.4 °F - 64.6 °F 94% 29.90 in 10.0 mi Calm Calm - N/A   Scattered Clouds